Muncie, IN

2:57 AM EST on November 20, 2017 (GMT -0500)
Delaware County-Johnson

Weather History for KMIE - March, 2014

Change the Weather History Date:

Sunday, March 16, 2014

  Actual Average Record
Temperature  
Mean Temperature 25 °F 40 °F  
Max Temperature 32 °F 49 °F 76 °F (1977)
Min Temperature 18 °F 30 °F 12 °F (1970)
Degree Days  
Heating Degree Days 40 25  
Month to date heating degree days 540 452  
Since 1 July heating degree days 5450 4835  
Cooling Degree Days 0 0  
Month to date cooling degree days 0 0  
Year to date cooling degree days 0 0  
Moisture  
Dew Point 16 °F    
Average Humidity 66    
Maximum Humidity 75    
Minimum Humidity 57    
Precipitation  
Precipitation 0.00 in 0.09 in 0.62 in (1982)
Month to date precipitation 1.08 1.40  
Year to date precipitation 4.04 5.94  
Sea Level Pressure  
Sea Level Pressure 30.17 in    
Wind  
Wind Speed 20 mph (ENE)    
Max Wind Speed 29 mph    
Max Gust Speed 37 mph    
Visibility 10 miles    
Events      
T = Trace of Precipitation, MM = Missing Value Source: NWS Daily Summary

Daily Weather History Graph

Daily Weather History Graph

Search for Another Location

Airport or City:

Trip Planner

Search our weather history database for the weather conditions in past years. The results will help you decide how hot, cold, wet, or windy it might be!

Date:

Astronomy

Mar. 16, 2014 Rise Set
Actual Time 7:51 AM EDT 7:49 PM EDT
Civil Twilight 7:24 AM EDT 8:16 PM EDT
Nautical Twilight 6:52 AM EDT 8:48 PM EDT
Astronomical Twilight 6:20 AM EDT 9:20 PM EDT
Moon 8:06 PM EDT (3/16) 7:34 AM EDT (3/16)
Length of Visible Light 12h 52m
Length of Day
11h 58m
Full, 100% of the Moon is Illuminated
Mar 16
Full
Mar 16
Full
Mar 23
Last Quarter
Mar 30
New
Apr 7
First Quarter

Hourly Weather History & Observations

Time (EDT) Temp. Windchill Dew Point Humidity Pressure Visibility Wind Dir Wind Speed Gust Speed Precip Events Conditions
12:53 AM 32.0 °F 23.6 °F 25.0 °F 75% 30.17 in 10.0 mi NE 10.4 mph - N/A   Clear
1:53 AM 30.9 °F 19.8 °F 23.0 °F 72% 30.15 in 10.0 mi NE 16.1 mph - N/A   Clear
2:53 AM 30.0 °F 19.1 °F 23.0 °F 75% 30.17 in 10.0 mi NE 15.0 mph - N/A   Clear
3:53 AM 30.0 °F 19.5 °F 21.0 °F 69% 30.18 in 10.0 mi NE 13.8 mph - N/A   Partly Cloudy
4:53 AM 28.9 °F 16.1 °F 21.0 °F 72% 30.17 in 10.0 mi NE 19.6 mph 27.6 mph N/A   Clear
5:53 AM 28.0 °F 13.9 °F 19.0 °F 69% 30.18 in 10.0 mi NE 23.0 mph 29.9 mph N/A   Clear
6:53 AM 28.0 °F 14.6 °F 19.9 °F 72% 30.18 in 10.0 mi NE 20.7 mph 27.6 mph N/A   Mostly Cloudy
7:53 AM 26.1 °F 11.6 °F 18.0 °F 71% 30.18 in 10.0 mi ENE 21.9 mph 32.2 mph N/A   Mostly Cloudy
8:03 AM 26.1 °F 11.0 °F 17.1 °F 69% 30.17 in 10.0 mi ENE 24.2 mph 32.2 mph N/A   Partly Cloudy
8:45 AM 26.1 °F 12.3 °F 18.0 °F 71% 30.18 in 10.0 mi NE 19.6 mph 28.8 mph N/A   Mostly Cloudy
8:53 AM 26.1 °F 11.0 °F 18.0 °F 71% 30.19 in 10.0 mi ENE 24.2 mph 29.9 mph N/A   Mostly Cloudy
9:05 AM 25.0 °F 10.2 °F 18.0 °F 75% 30.17 in 10.0 mi ENE 21.9 mph 28.8 mph N/A   Scattered Clouds
9:53 AM 26.1 °F 12.3 °F 14.0 °F 60% 30.20 in 10.0 mi ENE 19.6 mph 29.9 mph N/A   Partly Cloudy
10:53 AM 26.1 °F 12.0 °F 14.0 °F 60% 30.24 in 10.0 mi East 20.7 mph 27.6 mph N/A   Clear
11:34 AM 27.0 °F 13.9 °F 17.1 °F 66% 30.22 in 10.0 mi East 18.4 mph 24.2 mph N/A   Mostly Cloudy
11:53 AM 27.0 °F 14.7 °F 16.0 °F 63% 30.25 in 10.0 mi ENE 16.1 mph 28.8 mph N/A   Mostly Cloudy
12:09 PM 27.0 °F 13.2 °F 16.0 °F 63% 30.21 in 10.0 mi ENE 20.7 mph 27.6 mph N/A   Scattered Clouds
12:18 PM 27.0 °F 12.5 °F 15.1 °F 61% 30.21 in 10.0 mi ENE 23.0 mph 29.9 mph N/A   Mostly Cloudy
12:28 PM 27.0 °F 13.2 °F 16.0 °F 63% 30.20 in 10.0 mi ENE 20.7 mph 32.2 mph N/A   Scattered Clouds
12:39 PM 27.0 °F 11.9 °F 16.0 °F 63% 30.19 in 10.0 mi ENE 25.3 mph 31.1 mph N/A   Mostly Cloudy
12:49 PM 26.6 °F 12.4 °F 15.8 °F 64% 30.19 in 10.0 mi East 21.9 mph 33.4 mph N/A   Scattered Clouds
12:53 PM 27.0 °F 12.2 °F 16.0 °F 63% 30.21 in 10.0 mi ENE 24.2 mph 33.4 mph N/A   Scattered Clouds
1:03 PM 27.0 °F 11.9 °F 16.0 °F 63% 30.19 in 10.0 mi ENE 25.3 mph 35.7 mph N/A   Mostly Cloudy
1:53 PM 26.1 °F 11.0 °F 16.0 °F 66% 30.19 in 10.0 mi ENE 24.2 mph 32.2 mph N/A   Mostly Cloudy
2:30 PM 26.1 °F 10.7 °F 15.1 °F 63% 30.15 in 10.0 mi ENE 25.3 mph 32.2 mph N/A   Scattered Clouds
2:53 PM 27.0 °F 12.8 °F 14.0 °F 58% 30.16 in 10.0 mi ENE 21.9 mph 33.4 mph N/A   Partly Cloudy
3:53 PM 26.1 °F 12.3 °F 14.0 °F 60% 30.17 in 10.0 mi East 19.6 mph 29.9 mph N/A   Partly Cloudy
4:53 PM 25.0 °F 11.7 °F 12.9 °F 60% 30.14 in 10.0 mi ENE 17.3 mph 32.2 mph N/A   Partly Cloudy
5:53 PM 24.1 °F 8.3 °F 14.0 °F 65% 30.12 in 10.0 mi ENE 24.2 mph 32.2 mph N/A   Clear
6:53 PM 23.0 °F 7.2 °F 14.0 °F 68% 30.11 in 10.0 mi NE 23.0 mph 29.9 mph N/A   Overcast
7:53 PM 21.9 °F 5.5 °F 12.9 °F 68% 30.12 in 10.0 mi NE 24.2 mph 28.8 mph N/A   Partly Cloudy
8:53 PM 21.9 °F 6.5 °F 12.9 °F 68% 30.12 in 10.0 mi NE 20.7 mph 32.2 mph N/A   Clear
9:53 PM 21.0 °F 5.4 °F 10.9 °F 65% 30.10 in 10.0 mi ENE 20.7 mph 26.5 mph N/A   Clear
10:53 PM 19.9 °F 3.5 °F 10.9 °F 68% 30.11 in 10.0 mi NE 21.9 mph 29.9 mph N/A   Clear
11:53 PM 19.0 °F 2.7 °F 12.0 °F 74% 30.09 in 10.0 mi NE 20.7 mph 36.8 mph N/A   Clear